Wichita, KS

2:29 AM CDT on March 26, 2017 (GMT -0500)
Wichita Eisenhower National Airport

Weather History for KICT - December, 2013

Change the Weather History Date:

Thursday, December 19, 2013

  Actual Average Record
Temperature  
Mean Temperature 49 °F 33 °F  
Max Temperature 62 °F 42 °F 67 °F (1966)
Min Temperature 36 °F 23 °F -8 °F (1983)
Degree Days  
Heating Degree Days 16 32  
Month to date heating degree days 616 572  
Since 1 July heating degree days 1501 1448  
Cooling Degree Days 0 0  
Month to date cooling degree days 0 0  
Year to date cooling degree days 1778 1686  
Moisture  
Dew Point 44 °F    
Average Humidity 73    
Maximum Humidity 86    
Minimum Humidity 60    
Precipitation  
Precipitation 0.00 in 0.04 in 1.89 in (2011)
Month to date precipitation T 0.80  
Year to date precipitation 39.85 32.24  
Snow  
Snow 0.00 in 0.20 in 2.40 in (1973)
Month to date snowfall T 2.6  
Since 1 July snowfall T 4.0  
Snow Depth 0.00 in    
Sea Level Pressure  
Sea Level Pressure 29.65 in    
Wind  
Wind Speed 13 mph (South)    
Max Wind Speed 24 mph    
Max Gust Speed 32 mph    
Visibility 10 miles    
Events      
T = Trace of Precipitation, MM = Missing Value Source: NWS Daily Summary

Daily Weather History Graph

Daily Weather History Graph

Search for Another Location

Airport or City:

Trip Planner

Search our weather history database for the weather conditions in past years. The results will help you decide how hot, cold, wet, or windy it might be!

Date:

Astronomy

Dec. 19, 2013 Rise Set
Actual Time 7:40 AM CST 5:13 PM CST
Civil Twilight 7:10 AM CST 5:43 PM CST
Nautical Twilight 6:37 AM CST 6:16 PM CST
Astronomical Twilight 6:05 AM CST 6:48 PM CST
Moon 7:38 PM CST (12/19) 9:01 AM CST (12/19)
Length of Visible Light 10h 32m
Length of Day
9h 33m
Waning Gibbous, 95% of the Moon is Illuminated
Dec 19
Waning Gibbous
Dec 25
Last Quarter
Jan 1
New
Jan 7
First Quarter
Jan 15
Full

Hourly Weather History & Observations

Time (CST) Temp. Windchill Dew Point Humidity Pressure Visibility Wind Dir Wind Speed Gust Speed Precip Events Conditions
12:53 AM 48.9 °F - 37.9 °F 66% 29.74 in 10.0 mi South 12.7 mph - N/A   Mostly Cloudy
1:53 AM 50.0 °F - 41.0 °F 71% 29.71 in 10.0 mi South 13.8 mph - N/A   Mostly Cloudy
2:53 AM 51.1 °F - 42.1 °F 71% 29.70 in 10.0 mi South 15.0 mph - N/A   Overcast
3:53 AM 50.0 °F - 43.0 °F 77% 29.68 in 10.0 mi South 15.0 mph - N/A   Overcast
4:53 AM 51.1 °F - 44.1 °F 77% 29.66 in 10.0 mi South 15.0 mph - N/A   Overcast
5:53 AM 50.0 °F - 44.1 °F 80% 29.66 in 10.0 mi South 16.1 mph - N/A   Overcast
6:53 AM 50.0 °F - 45.0 °F 83% 29.65 in 10.0 mi South 15.0 mph - N/A   Overcast
7:53 AM 48.9 °F - 45.0 °F 86% 29.66 in 10.0 mi South 11.5 mph - N/A   Overcast
8:53 AM 50.0 °F - 46.0 °F 86% 29.68 in 10.0 mi South 11.5 mph - N/A   Overcast
9:53 AM 52.0 °F - 46.9 °F 83% 29.69 in 10.0 mi South 12.7 mph - N/A   Mostly Cloudy
10:36 AM 53.6 °F - 46.4 °F 77% 29.69 in 10.0 mi South 19.6 mph 26.5 mph N/A   Overcast
10:53 AM 55.0 °F - 46.9 °F 74% 29.68 in 10.0 mi South 17.3 mph 26.5 mph N/A   Overcast
11:53 AM 57.9 °F - 46.9 °F 67% 29.65 in 10.0 mi South 19.6 mph - N/A   Mostly Cloudy
12:53 PM 57.9 °F - 46.0 °F 65% 29.62 in 10.0 mi SSW 18.4 mph 24.2 mph N/A   Mostly Cloudy
1:53 PM 60.1 °F - 46.0 °F 60% 29.59 in 10.0 mi SSW 15.0 mph - N/A   Mostly Cloudy
2:00 PM 60.8 °F - 44.6 °F 55% 29.60 in 10.0 mi SSW 20.7 mph 26.5 mph N/A   Mostly Cloudy
2:53 PM 60.1 °F - 46.0 °F 60% 29.59 in 10.0 mi SSW 16.1 mph - N/A   Mostly Cloudy
3:53 PM 60.1 °F - 46.9 °F 62% 29.60 in 10.0 mi SSW 10.4 mph - N/A   Mostly Cloudy
4:53 PM 59.0 °F - 46.0 °F 62% 29.58 in 10.0 mi South 11.5 mph - N/A   Mostly Cloudy
5:53 PM 55.9 °F - 48.0 °F 75% 29.59 in 10.0 mi SSE 10.4 mph - N/A   Mostly Cloudy
6:53 PM 55.0 °F - 48.0 °F 77% 29.59 in 10.0 mi South 10.4 mph - N/A   Scattered Clouds
7:53 PM 50.0 °F - 46.0 °F 86% 29.62 in 10.0 mi Calm Calm - N/A   Scattered Clouds
8:53 PM 50.0 °F - 46.9 °F 89% 29.63 in 10.0 mi Calm Calm - N/A   Scattered Clouds
9:53 PM 48.0 °F - 45.0 °F 89% 29.66 in 10.0 mi NNW 15.0 mph - N/A   Scattered Clouds
10:53 PM 39.9 °F 31.4 °F 33.1 °F 77% 29.69 in 10.0 mi North 16.1 mph - N/A   Partly Cloudy
11:53 PM 36.0 °F 25.6 °F 28.0 °F 73% 29.71 in 10.0 mi North 18.4 mph 28.8 mph N/A   Mostly Cloudy